EPGD Weather Reports


time (UTC)temp
C
wind
direction
speed
KPH
gust
KPH
rain 1hr
cm
rain 24hr
cm
rain mn
cm
humidity
%
barometer
mb
20260507113504 8 360 22.5 0.0 0.00 0.00 0.00 70 1014.0
20260507110503 8 360 19.3 0.0 0.00 0.00 0.00 70 1014.0
20260507103504 7 10 20.9 0.0 0.00 0.00 0.00 75 1014.0
20260507100505 7 350 20.9 0.0 0.00 0.00 0.00 75 1013.0
20260507093503 7 350 20.9 0.0 0.00 0.00 0.00 81 1013.0
20260507090504 7 360 22.5 0.0 0.00 0.00 0.00 81 1013.0
20260507083504 7 360 20.9 0.0 0.00 0.00 0.00 81 1012.0
20260507080504 6 350 20.9 0.0 0.00 0.00 0.00 81 1012.0
20260507073504 5 360 22.5 0.0 0.00 0.00 0.00 86 1012.0
20260507070504 5 360 19.3 0.0 0.00 0.00 0.00 86 1012.0
20260507063503 5 20 20.9 0.0 0.00 0.00 0.00 93 1011.0
20260507060504 5 10 14.5 0.0 0.00 0.00 0.00 93 1011.0
20260507053504 5 10 20.9 0.0 0.00 0.00 0.00 100 1011.0
20260507050504 5 10 19.3 0.0 0.00 0.00 0.00 100 1010.0
20260507043504 5 10 16.1 0.0 0.00 0.00 0.00 100 1010.0
20260507040504 5 360 20.9 0.0 0.00 0.00 0.00 100 1010.0
20260507033504 5 360 16.1 0.0 0.00 0.00 0.00 100 1010.0
20260507030504 5 20 14.5 0.0 0.00 0.00 0.00 93 1010.0
20260507023504 5 10 16.1 0.0 0.00 0.00 0.00 93 1010.0
20260507020504 5 10 16.1 0.0 0.00 0.00 0.00 93 1010.0
20260507013503 5 10 16.1 0.0 0.00 0.00 0.00 100 1010.0
20260507010504 5 20 14.5 0.0 0.00 0.00 0.00 100 1010.0
20260507003504 5 360 19.3 0.0 0.00 0.00 0.00 100 1009.0
20260507000504 5 10 20.9 0.0 0.00 0.00 0.00 100 1009.0
20260506233503 5 10 16.1 0.0 0.00 0.00 0.00 100 1009.0
20260506230504 5 10 14.5 0.0 0.00 0.00 0.00 100 1009.0
20260506223503 5 30 16.1 0.0 0.00 0.00 0.00 100 1009.0
20260506220504 5 30 16.1 0.0 0.00 0.00 0.00 100 1009.0
20260506213504 5 30 20.9 0.0 0.00 0.00 0.00 100 1009.0
20260506210504 5 40 24.1 0.0 0.00 0.00 0.00 100 1009.0
20260506203503 5 40 27.4 0.0 0.00 0.00 0.00 100 1008.0
20260506200504 5 40 24.1 0.0 0.00 0.00 0.00 100 1008.0
20260506193504 5 30 20.9 0.0 0.00 0.00 0.00 100 1008.0
20260506190504 5 40 27.4 0.0 0.00 0.00 0.00 100 1008.0
20260506183504 5 40 24.1 0.0 0.00 0.00 0.00 100 1008.0
20260506180504 5 40 24.1 0.0 0.00 0.00 0.00 100 1007.0
20260506173503 5 40 27.4 0.0 0.00 0.00 0.00 100 1007.0
20260506170504 5 40 29.0 0.0 0.00 0.00 0.00 100 1007.0
20260506163504 5 40 27.4 0.0 0.00 0.00 0.00 100 1007.0
20260506160503 5 40 29.0 0.0 0.00 0.00 0.00 100 1007.0
20260506153504 5 40 32.2 0.0 0.00 0.00 0.00 100 1007.0
20260506150504 5 50 25.7 0.0 0.00 0.00 0.00 100 1007.0
20260506143504 5 50 24.1 0.0 0.00 0.00 0.00 100 1007.0
20260506140504 5 50 32.2 0.0 0.00 0.00 0.00 100 1007.0
20260506133503 5 50 29.0 0.0 0.00 0.00 0.00 93 1007.0
20260506130504 5 50 32.2 0.0 0.00 0.00 0.00 86 1007.0
20260506123503 5 50 33.8 0.0 0.00 0.00 0.00 86 1007.0
20260506120504 5 40 33.8 0.0 0.00 0.00 0.00 86 1007.0